Regional Weather Roundup
Issued by NWS

Home | Current Version | Previous Version | Text Only | Print | Product List | Glossary Off
Versions: 1 2 3 4 5 6 7 8 9 10 11 12 13 14 15 16 17 18 19 20 21 22 23 24 25 26 27 28 29 30 31 32 33 34 35 36 37 38 39 40 41 42 43 44 45 46 47 48 49 50

000
ASUS45 KTFX 310104
RWRMT
MONTANA HOURLY WEATHER ROUNDUP
NATIONAL WEATHER SERVICE GREAT FALLS MT
604 PM MST FRI JAN 30 2015

NOTE: "FAIR" INDICATES FEW OR NO CLOUDS BELOW 12000 FEET WITH NO
SIGNIFICANT WEATHER AND/OR OBSTRUCTIONS TO VISIBILITY.

* THESE STATIONS ARE NOT UNDER NWS QUALITY CONTROL. THEY DO NOT
   REPORT WEATHER SUCH AS PRECIPITATION OR FOG.

MTZ001>007-043-310200-
WEST OF THE DIVIDE
CITY           SKY/WX    TMP DP  RH WIND       PRES   REMARKS
KALISPELL      FOG       25  23  92 NW3       30.23F VSB M1/4
MISSOULA       FOG       32  25  75 CALM      30.20F
BUTTE          PTCLDY    34  19  54 N5        30.14F WCI  29
MULLAN PASS    PTCLDY    28  21  75 NW7       30.14F WCI  21
* ANACONDA     PTCLDY    34  19  54 N/A        N/A
* ESSEX        N/A       26  20  78 N/A        N/A
* LINCOLN      N/A       35  18  50 S4G12      N/A
* LOOKOUT PASS N/A       32  24  72 N4         N/A
* POLSON       N/A       25  24  96 S1         N/A
* RONAN APT    CLEAR     25  25 100 N/A        N/A
* SEELEY LAKE  N/A       33  19  56 N/A        N/A
* THOMP F APT  PTCLDY    34  11  38 N4G21      N/A
$$

MTZ008-052>055-310200-
SOUTHWEST MONTANA
CITY           SKY/WX    TMP DP  RH WIND       PRES   REMARKS
BOZEMAN        PTCLDY    34  21  59 NE3       30.14F
DILLON         PTCLDY    30  16  56 E5        30.12F WCI  25
* W YELLOWSTON CLOUDY    25  15  66 N/A        N/A
* THREE FORKS  PTCLDY    37  28  70 N/A        N/A
* BOULDER HILL N/A       32  16  52 S4         N/A
* MONIDA PASS  N/A       14  11  88 W5         N/A   WCI   6
* RAYNOLDS PAS N/A       26  17  69 N/A        N/A
* WHITEHALL    N/A       40  15  36 N4         N/A
* WISE RIVER   N/A       29  15  56 W5G10      N/A   WCI  24
$$

MTZ009>010-012-014-046-048-049-054-310200-
EAST SLOPES AND CENTRAL MONTANA
CITY           SKY/WX    TMP DP  RH WIND       PRES   REMARKS
CUT BANK       PTCLDY    37  16  42 S3        30.04F
GREAT FALLS    CLEAR     36  18  48 SW9       30.07F WCI  29
HELENA         PTCLDY    36  25  64 SW5       30.14R WCI  32
* DEARBORN     N/A       39  19  45 SW4        N/A
* EAST GLACIER N/A       36  15  42 W22G29     N/A   WCI  25
* MONARCH      N/A       32   8  36 E2         N/A
* PENDROY      N/A       39  10  30 S2         N/A
* ROGERS PASS  N/A       32  15  49 SE4G16     N/A
* SWEET GRASS  N/A       38  22  53 S13        N/A   WCI  30
$$

MTZ011-013-016-021-035-040-045-047-050-051-310200-
NORTH CENTRAL MONTANA
CITY           SKY/WX    TMP DP  RH WIND       PRES   REMARKS
HAVRE          CLEAR     32  25  75 NE8       30.10F WCI  25
LEWISTOWN      CLEAR     37  18  46 E6        30.09F WCI  32
* N BAR RANCH  CLEAR     34  12  40 SW5       30.12S WCI  29
* CHESTER      N/A       38  26  62 SE1        N/A
* DENTON       N/A       34  13  42 SE6        N/A   WCI  29
* GEYSER       N/A       30  12  47 S10        N/A   WCI  21
* JUDITH GAP   N/A       33  11  40 SE6        N/A   WCI  27
* LOMA         N/A       38  26  62 NE10       N/A   WCI  31
$$

MTZ017>020-022>027-061-062-310200-
NORTHEAST MONTANA
CITY           SKY/WX    TMP DP  RH WIND       PRES   REMARKS
GLASGOW        CLEAR     32  28  85 NE6       30.16F WCI  26
GLENDIVE       CLEAR     34  25  70 N6        30.18S WCI  29
JORDAN         CLEAR     32  25  75 CALM      30.15S
SIDNEY         CLEAR     30  25  82 NW3       30.21S
WOLF POINT     PTCLDY    34  27  76 NE3       30.19S
* BEAVER HILL  N/A       35  25  67 NE1        N/A
* CIRCLE       N/A       37  28  70 N/A        N/A
* LINDSAY DVD  N/A       28  23  81 VRB4       N/A
* NAVAJO       N/A       27  25  92 NE3        N/A
* SACO         N/A       30  28  92 E9         N/A   WCI  22
$$

MTZ028>042-056>058-310200-
SOUTHCENTRAL AND SOUTHEAST MONTANA
CITY           SKY/WX    TMP DP  RH WIND       PRES   REMARKS
BAKER          CLEAR     30  25  82 CALM      30.17R
BILLINGS       MOCLDY    43  19  38 S5        30.13S
LIVINGSTON     PTCLDY    28  18  66 W9        30.11S WCI  19
MILES CITY     PTCLDY    41  27  58 CALM      30.16R
* LAUREL APT   MOCLDY    39  21  48 N/A        N/A
* ROUNDUP APT  PTCLDY    41  12  30 N/A        N/A
* ALZADA       N/A       37  25  62 N6         N/A   WCI  32
* HYSHAM       N/A       38  13  36 SE1        N/A
* LAME DEER    N/A       38  18  44 N/A        N/A
* REED POINT   N/A       38  14  37 N/A        N/A
* ROSCOE HILL  N/A       37  10  33 S2         N/A
$$

REGIONAL REPORTS...DAKOTAS
CITY           SKY/WX    TMP DP  RH WIND       PRES   REMARKS
WILLISTON      CLEAR     32  27  82 N13       30.20R WCI  22
DICKINSON      CLEAR     34  25  70 N7        30.14R WCI  28
CROSBY         CLOUDY    23  23 100 N12       30.24R WCI  11
WATFORD CITY   FAIR      32  27  82 CALM      30.17R
BISMARCK       CLEAR     34  27  76 NW5       30.17R WCI  29
GRAND FORKS    CLOUDY    30  23  75 NW7       30.13R WCI  23
FARGO          CLEAR     28  23  81 S7        30.12S WCI  21
BUFFALO SD     PTCLDY    39  27  62 N13       30.10R WCI  31
RAPID CITY     MOCLDY    39  25  57 N15       30.14R WCI  31
$$

REGIONAL REPORTS...WYOMING/IDAHO/WASHINGTON
CITY           SKY/WX    TMP DP  RH WIND       PRES   REMARKS
GILLETTE       MOCLDY    28  21  75 S5        30.14F WCI  22
SHERIDAN       CLOUDY    30  21  69 CALM      30.14S
CODY           CLOUDY    34  30  85 CALM      30.14S
YELLOWSTONE LA CLOUDY     9   5  84 CALM      30.14S
SALMON         CLOUDY    28  21  75 N3        30.26S
MULLAN PASS    PTCLDY    28  21  75 NW7       30.14S WCI  21
SAND POINT     CLOUDY    32  32 100 SW6       30.28S WCI  26
SPOKANE        LGT SNOW  30  28  92 S3        30.28S VSB 1/2
$$

REGIONAL REPORTS...SASKATCHEWAN
CITY           SKY/WX    TMP DP  RH WIND       PRES   REMARKS
SWIFT CURRENT  FOG       25  23  92 E10       30.16S VSB 1/2  WCI  15

$$




USA.gov is the U.S. government's official web portal to all federal, state and local government web resources and services.